[[{"header":{"parameterUnit":"m.s-1","parameterCategory":1,"la1":30.2991,"la2":30.254,"lo1":-89.0895,"lo2":-89.0444,"dy":0.0017,"dx":0.0017,"nx":28,"ny":28,"refTime":"2024-07-20T21:00:00:Z","depth":0,"parameterNumber":2,"parameterNumberName":"U-component_of_WINDS"},"data":[0,0,0,0,0,0,0,0,0,0,0,0,0,0,0,0,0,0,0,0,0,0,0,0,0,0,0,0,0,0,0,0,0,0,0,0,0,0,0,0,0,0,0,0,0,0,0,0,0,0,0,0,0,0,0,0,0,0,1.8027,1.8027,0,1.8045,1.8045,1.8045,1.7996,1.7995,1.7993,1.7992,1.8009,1.801,1.8012,0,0,0,0,0,0,0,0,0,0,0,0,0,1.795,1.7952,1.8027,1.8028,1.8028,1.8045,1.8045,1.8045,1.7997,1.7995,1.7993,1.7991,1.8008,1.801,1.8012,0,0,0,0,0,0,0,0,0,0,0,0,0,1.7977,1.7953,1.8027,1.8006,1.8004,1.8045,1.8045,1.8045,1.7997,1.7995,1.7993,1.799,1.8007,1.801,1.8013,1.8075,0,0,1.8021,1.8022,0,0,0,0,0,0,0,0,1.7976,1.798,1.8009,1.8007,1.8005,1.8016,1.8024,1.8055,1.7998,1.8,1.7992,1.7989,1.8013,1.8015,1.8023,1.8076,1.8077,1.8021,1.8023,1.8024,1.8025,0,0,0,0,0,0,0,1.7974,1.7979,1.8034,1.8009,1.8007,1.7995,1.7996,1.803,1.8019,1.7999,1.7996,1.7999,1.8012,1.8021,1.8023,1.8077,1.8021,1.8024,1.8026,1.8027,1.8181,1.8184,0,0,0,0,0,0,1.7975,1.7978,1.8034,1.8035,1.7985,1.7998,1.7999,1.8015,1.8018,1.8016,1.8,1.7996,1.8017,1.802,1.8024,1.8097,1.8024,1.8027,1.8028,1.8179,1.8182,1.8185,0,0,0,0,0,0,1.7974,1.7981,1.8033,1.8005,1.8011,1.8002,1.8019,1.8016,1.8026,1.8019,1.8017,1.8012,1.8015,1.802,1.8063,1.8097,1.8028,1.8031,1.8176,1.818,1.8183,1.8243,0,0,0,0,0,0,1.7972,1.798,1.8004,1.8006,1.8013,1.8072,1.8022,1.8018,1.8031,1.8025,1.8029,1.8028,1.8014,1.8059,1.8066,1.8099,1.8033,1.8173,1.8178,1.8182,1.8238,1.8249,1.8258,0,0,0,0,0,1.7969,1.802,1.8006,1.8013,1.8042,1.8074,1.8078,1.8061,1.8034,1.8057,1.8053,1.8028,1.8092,1.8064,1.8071,1.8106,1.8171,1.8176,1.8182,1.8234,1.8247,1.8257,0,0,0,0,0,0,1.8021,1.802,1.8004,1.8057,1.8066,1.8066,1.8095,1.8075,1.8092,1.8086,1.8065,1.8066,1.8113,1.8113,1.8082,1.8166,1.8127,1.8134,1.8164,1.8176,1.8185,1.8184,1.8035,0,0,0,0,0,1.8039,1.8066,1.8063,1.811,1.8116,1.8105,1.8118,1.8105,1.8113,1.8116,1.8115,1.8124,1.8146,1.8161,1.8181,1.8239,1.8238,1.8266,1.8276,1.8284,1.829,1.832,1.8332,1.8203,1.8203,1.8203,0,0,1.8076,1.8079,1.8096,1.8121,1.8126,1.8154,1.8108,1.8139,1.8159,1.8121,1.8161,1.8161,1.8169,1.822,1.8242,1.8222,1.8326,1.8291,1.8297,1.8299,1.8327,1.8339,1.835,1.8206,1.8206,1.8205,0,0,1.8157,1.8162,1.8202,1.8209,1.8218,1.821,1.822,1.8223,1.8222,1.8262,1.8234,1.8257,1.8296,1.8303,1.8312,1.8397,1.8374,1.8404,1.8454,1.8483,1.8494,1.8503,1.8533,1.8544,1.841,1.841,1.841,0,1.8201,1.8242,1.8225,1.8258,1.8269,1.8237,1.8277,1.8284,1.8299,1.8307,1.8285,1.8333,1.8336,1.8388,1.8409,1.8417,1.8427,1.8403,1.8494,1.8503,1.8511,1.8539,1.855,1.8414,1.8413,1.8413,1.8413,0,1.8296,1.8325,1.8356,1.8372,1.8387,1.8424,1.8411,1.8428,1.8414,1.8409,1.8451,1.8454,1.8474,1.8485,1.8471,1.8535,1.8522,1.8497,1.8457,1.8527,1.8553,1.8564,1.8419,1.8418,1.8417,1.8416,0,0,1.841,1.8417,1.8428,1.8435,1.8443,1.8465,1.85,1.852,1.8535,1.8547,1.8576,1.861,1.8586,1.8596,1.8583,1.8609,1.8676,1.8581,1.8581,1.8598,1.8746,1.8765,1.8778,1.8661,1.8663,1.8665,1.8745,0,1.8489,1.855,1.8536,1.8595,1.8621,1.8591,1.8622,1.863,1.8627,1.8648,1.8644,1.8668,1.8636,1.8642,1.8666,1.8663,1.8705,1.8657,1.8687,1.8688,1.8685,1.8791,1.8811,1.8887,1.8756,1.8757,1.8759,0,1.859,1.8606,1.8669,1.8674,1.8684,1.8712,1.8729,1.875,1.8759,1.8754,1.8766,1.8748,1.8782,1.8742,1.8789,1.8756,1.8768,1.8768,1.877,1.8772,1.8727,1.8795,1.891,1.8922,1.8775,1.8773,1.8772,0,1.8666,1.8704,1.8746,1.8753,1.8759,1.878,1.8783,1.879,1.8803,1.8818,1.8827,1.8846,1.8856,1.8871,1.8858,1.883,1.8907,1.8866,1.8904,1.8904,1.892,1.8919,1.9038,1.8929,1.8929,1.8929,1.8929,0,1.8756,1.8795,1.878,1.8806,1.885,1.8833,1.8876,1.8876,1.8882,1.8907,1.8882,1.8906,1.8888,1.8911,1.8901,1.8941,1.8946,1.8943,1.894,1.8945,1.8945,1.8951,1.8945,1.8932,1.8931,1.8931,1.893,0,1.8848,1.8839,1.8883,1.8886,1.8888,1.892,1.8922,1.8946,1.8941,1.8973,1.8979,1.8972,1.8997,1.8986,1.9012,1.9005,1.9057,1.9047,1.9054,1.9051,1.9089,1.9086,1.9216,1.9232,1.9113,1.9114,1.9115,0,1.8905,1.8935,1.8941,1.8957,1.8962,1.8987,1.9001,1.8986,1.9001,1.9014,1.9036,1.9059,1.9077,1.9118,1.9115,1.9135,1.9124,1.9169,1.9127,1.9131,1.9124,1.9123,1.9125,1.9177,1.9178,1.9179,1.918,0,1.9008,1.9003,1.9024,1.9044,1.9061,1.9076,1.9089,1.9102,1.9088,1.9106,1.9132,1.9146,1.9173,1.9196,1.9214,1.9217,1.9196,1.9194,1.9203,1.9208,1.9211,1.921,1.9076,1.9191,1.919,1.9189,1.9188,1.9188,1.9084,1.9109,1.9118,1.9142,1.915,1.9163,1.9185,1.9184,1.9205,1.9227,1.9217,1.9246,1.9254,1.9276,1.9282,1.9305,1.9287,1.9302,1.9305,1.9309,1.9313,1.9208,1.9308,1.9308,1.9308,1.9308,1.9307,0,1.9185,1.9189,1.9212,1.9231,1.925,1.923,1.9243,1.9261,1.9287,1.9297,1.9315,1.9345,1.9368,1.9366,1.9387,1.9405,1.9396,1.9411,1.9409,1.941,1.9328,1.9318,1.9418,1.9418,1.9418,1.9418,1.9418,1.9418,1.924,1.9281,1.9277,1.9322,1.9326,1.9356,1.9365,1.9376,1.9384,1.9419,1.9437,1.9437,1.9442,1.9463,1.9483,1.9481,1.949,1.9508,1.9504,1.9427,1.9416,1.9405,1.9395,1.951,1.951,1.9583,1.9584,1.9584]},{"header":{"parameterUnit":"m.s-1","parameterCategory":1,"la1":30.2991,"la2":30.254,"lo1":-89.0895,"lo2":-89.0444,"dy":0.0017,"dx":0.0017,"nx":28,"ny":28,"refTime":"2024-07-20T21:00:00:Z","depth":0,"parameterNumber":3,"parameterNumberName":"V-component_of_WINDS"},"data":[0,0,0,0,0,0,0,0,0,0,0,0,0,0,0,0,0,0,0,0,0,0,0,0,0,0,0,0,0,0,0,0,0,0,0,0,0,0,0,0,0,0,0,0,0,0,0,0,0,0,0,0,0,0,0,0,0,0,1.9172,1.9172,0,1.9082,1.9081,1.908,1.9077,1.9078,1.9079,1.908,1.898,1.8977,1.8973,0,0,0,0,0,0,0,0,0,0,0,0,0,1.9336,1.9333,1.9173,1.9171,1.917,1.9082,1.9081,1.908,1.9077,1.9078,1.908,1.9081,1.8981,1.8977,1.8973,0,0,0,0,0,0,0,0,0,0,0,0,0,1.9257,1.9332,1.9173,1.9158,1.9156,1.9082,1.9081,1.9079,1.9077,1.9078,1.908,1.9081,1.8983,1.8977,1.8972,1.8904,0,0,1.8955,1.8953,0,0,0,0,0,0,0,0,1.9261,1.9251,1.9162,1.9159,1.9157,1.9093,1.9102,1.902,1.9076,1.9107,1.908,1.9082,1.9016,1.9008,1.8987,1.8899,1.8895,1.8954,1.8951,1.8949,1.8947,0,0,0,0,0,0,0,1.9267,1.9255,1.9136,1.916,1.9157,1.9154,1.9145,1.9086,1.9052,1.9104,1.9104,1.9093,1.9015,1.8992,1.8984,1.8893,1.8955,1.895,1.8946,1.8944,1.8744,1.8742,0,0,0,0,0,0,1.9276,1.9259,1.9139,1.9134,1.9215,1.915,1.9139,1.9111,1.9053,1.9046,1.9092,1.9094,1.9001,1.8991,1.8981,1.8896,1.8949,1.8943,1.894,1.8746,1.8744,1.8741,0,0,0,0,0,0,1.928,1.9266,1.9143,1.9196,1.9181,1.9145,1.9114,1.9109,1.9086,1.9044,1.9038,1.9076,1.9002,1.8989,1.8923,1.8892,1.8941,1.8936,1.8748,1.8745,1.8742,1.8726,0,0,0,0,0,0,1.9284,1.9267,1.9242,1.9196,1.9178,1.9089,1.9112,1.9106,1.9077,1.9079,1.9027,1.902,1.9002,1.8932,1.8918,1.8885,1.8932,1.8751,1.8747,1.8743,1.8729,1.8723,1.8718,0,0,0,0,0,1.929,1.924,1.9241,1.9226,1.9147,1.9087,1.9077,1.9059,1.9075,1.9049,1.9022,1.9022,1.8899,1.8925,1.8909,1.8875,1.8753,1.8748,1.8744,1.8732,1.8724,1.8718,0,0,0,0,0,0,1.928,1.9234,1.9234,1.9168,1.9132,1.9087,1.9053,1.9052,1.9008,1.9011,1.8989,1.8977,1.8912,1.8887,1.8917,1.8805,1.8827,1.8819,1.8823,1.8816,1.881,1.8816,1.8927,0,0,0,0,0,1.9271,1.9229,1.919,1.9135,1.9117,1.9088,1.9062,1.9052,1.9012,1.8996,1.8965,1.8924,1.8877,1.8845,1.8799,1.8727,1.8714,1.8695,1.869,1.8685,1.8677,1.8635,1.8626,1.8727,1.8727,1.8727,0,0,1.925,1.9219,1.9194,1.9132,1.9103,1.9057,1.9075,1.9027,1.8992,1.8988,1.8924,1.89,1.8854,1.8784,1.8752,1.8761,1.8647,1.8679,1.8676,1.8671,1.863,1.862,1.8612,1.8724,1.8724,1.8725,0,0,1.9188,1.9162,1.9113,1.9084,1.9041,1.9022,1.9011,1.8966,1.895,1.8887,1.8883,1.8841,1.8759,1.8726,1.8698,1.8625,1.8622,1.8611,1.8579,1.8539,1.8531,1.8523,1.8495,1.8485,1.8604,1.8604,1.8604,0,1.9167,1.9101,1.9087,1.9039,1.901,1.9009,1.8957,1.8929,1.8871,1.8851,1.8864,1.8761,1.873,1.8652,1.8634,1.8613,1.8596,1.8615,1.8533,1.8526,1.8519,1.8491,1.8481,1.8603,1.8603,1.8603,1.8603,0,1.9075,1.9029,1.8994,1.8942,1.891,1.886,1.8837,1.8806,1.8799,1.8779,1.8713,1.8676,1.8622,1.8603,1.8595,1.8523,1.853,1.8539,1.8559,1.8508,1.8482,1.8471,1.8601,1.8601,1.8602,1.8602,0,0,1.9002,1.8945,1.8931,1.8907,1.886,1.8823,1.8772,1.8722,1.8694,1.8656,1.861,1.8543,1.855,1.8519,1.8507,1.8472,1.8413,1.8484,1.8482,1.847,1.8329,1.8322,1.831,1.8413,1.8411,1.8409,1.8332,0,1.8933,1.8846,1.8833,1.8754,1.871,1.8708,1.8664,1.8629,1.8608,1.8566,1.8543,1.8494,1.8509,1.849,1.8455,1.8428,1.8384,1.8434,1.8367,1.8365,1.8377,1.8296,1.8288,1.8217,1.8322,1.8321,1.8319,0,1.884,1.8802,1.872,1.8678,1.8659,1.862,1.8572,1.8533,1.8492,1.848,1.8446,1.8439,1.8383,1.841,1.8332,1.8366,1.8338,1.8321,1.8317,1.8308,1.8337,1.8282,1.8194,1.8183,1.8303,1.8305,1.8306,0,1.8792,1.8719,1.8661,1.864,1.8591,1.8563,1.8541,1.8502,1.8473,1.843,1.841,1.8362,1.8334,1.8295,1.8274,1.8295,1.8197,1.8222,1.8182,1.8183,1.8159,1.816,1.8063,1.8146,1.8147,1.8147,1.8147,0,1.8715,1.8664,1.8638,1.8602,1.8544,1.8529,1.8472,1.845,1.8416,1.8373,1.8368,1.8328,1.8304,1.8259,1.8242,1.8179,1.8167,1.8154,1.8149,1.8152,1.8154,1.8132,1.8135,1.8144,1.8145,1.8145,1.8146,0,1.865,1.8631,1.8566,1.8526,1.8515,1.8474,1.8438,1.8401,1.8383,1.8328,1.8315,1.8284,1.8231,1.8207,1.8141,1.813,1.8057,1.8058,1.8071,1.8069,1.803,1.8033,1.7913,1.7895,1.7993,1.7992,1.7991,0,1.86,1.8562,1.8518,1.849,1.8468,1.8424,1.8394,1.8377,1.8346,1.8298,1.8266,1.8214,1.8171,1.8087,1.8056,1.8006,1.8003,1.7964,1.7995,1.7999,1.7999,1.8,1.7995,1.7958,1.7957,1.7956,1.7955,0,1.8513,1.8506,1.8465,1.8421,1.8386,1.835,1.8313,1.8291,1.8268,1.8233,1.818,1.8148,1.8082,1.8029,1.7977,1.7951,1.7948,1.7947,1.7934,1.7935,1.7944,1.7936,1.8053,1.7948,1.7949,1.795,1.795,1.795,1.8452,1.8418,1.8382,1.8336,1.8308,1.8274,1.8238,1.8215,1.8172,1.8118,1.8111,1.8054,1.8014,1.7944,1.7917,1.787,1.7879,1.7862,1.7857,1.7852,1.7849,1.7955,1.7861,1.7861,1.7861,1.7861,1.7862,0,1.8363,1.8341,1.8299,1.825,1.8213,1.8218,1.8178,1.8146,1.8097,1.8061,1.802,1.7959,1.7908,1.7875,1.7823,1.7792,1.7789,1.7778,1.7779,1.7772,1.7845,1.786,1.7781,1.7781,1.7781,1.7781,1.7782,1.7782,1.8312,1.8253,1.8242,1.8168,1.8145,1.8091,1.8068,1.8036,1.8007,1.794,1.7899,1.7879,1.7843,1.7788,1.7741,1.7733,1.7712,1.7701,1.7692,1.7759,1.7768,1.7775,1.7789,1.7697,1.7697,1.7623,1.7622,1.7621]}]]